Weather History for Hill City, KS

Change the Weather History Date:

Sunday, March 24, 2013

  Actual Average Record
Temperature  
Mean Temperature 24 °F 44 °F  
Max Temperature 33 °F 58 °F 92 °F (1910)
Min Temperature 15 °F 30 °F 3 °F (1974)
Degree Days  
Heating Degree Days 40    
Moisture  
Dew Point 17 °F    
Average Humidity 73    
Maximum Humidity 88    
Minimum Humidity 59    
Precipitation  
Precipitation T in 0.05 in 1.10 in (2007)
Month to date precipitation 0.14 1.15  
Year to date precipitation 1.33 2.12  
Sea Level Pressure  
Sea Level Pressure 30.23 in    
Wind  
Wind Speed 16 mph (NW)    
Max Wind Speed 20 mph    
Max Gust Speed 25 mph    
Visibility 9 miles    
Events Snow    
T = Trace of Precipitation, MM = Missing Value Source: NWS Daily Summary

Daily Weather History Graph

Daily Weather History Graph

Search for Another Location

Airport:

Trip Planner

Search our weather history database for the weather conditions in past years. The results will help you decide how hot, cold, wet, or windy it might be!

Date:

Astronomy

Mar. 24, 2013 Rise Set
Actual Time 7:35 AM CDT 7:55 PM CDT
Civil Twilight 7:09 AM CDT 8:22 PM CDT
Nautical Twilight 6:37 AM CDT 8:54 PM CDT
Astronomical Twilight 6:05 AM CDT 9:26 PM CDT
Moon 5:26 PM CDT (3/24) 5:46 AM CDT (3/24)
Length of Visible Light 13h 13m
Length of Day
12h 19m
Waxing Gibbous, 92% of the Moon is Illuminated
Mar 24
Waxing Gibbous
Mar 27
Full
Apr 2
Last Quarter
Apr 10
New
Apr 18
First Quarter

Hourly Weather History & Observations

Time (CDT) Temp. Windchill Dew Point Humidity Pressure Visibility Wind Dir Wind Speed Gust Speed Precip Events Conditions
12:19 AM 24.8 °F 11.1 °F 21.2 °F 86% 30.12 in 2.0 mi North 18.4 mph - 0.00 in Snow Light Snow
12:40 AM 24.8 °F 10.7 °F 21.2 °F 86% 30.12 in 4.0 mi North 19.6 mph 25.3 mph 0.00 in Snow Light Snow
12:53 AM 25.0 °F 11.3 °F 21.9 °F 88% 30.20 in 7.0 mi North 18.4 mph - 0.00 in   Overcast
1:53 AM 25.0 °F 12.6 °F 21.0 °F 85% 30.22 in 5.0 mi North 15.0 mph - 0.00 in   Overcast
2:53 AM 24.1 °F 11.5 °F 19.0 °F 81% 30.23 in 10.0 mi North 15.0 mph - 0.00 in   Overcast
3:53 AM 23.0 °F 8.7 °F 16.0 °F 74% 30.23 in 10.0 mi North 18.4 mph - N/A   Overcast
4:53 AM 19.0 °F 7.5 °F 14.0 °F 81% 30.22 in 10.0 mi NNW 10.4 mph - N/A   Clear
5:53 AM 17.1 °F 5.0 °F 12.0 °F 81% 30.23 in 10.0 mi NNW 10.4 mph - N/A   Clear
6:53 AM 17.1 °F 2.0 °F 12.0 °F 81% 30.24 in 10.0 mi NNW 16.1 mph - N/A   Clear
7:53 AM 16.0 °F 2.3 °F 10.9 °F 81% 30.25 in 10.0 mi NW 12.7 mph - N/A   Clear
8:53 AM 19.0 °F 6.8 °F 12.0 °F 74% 30.26 in 10.0 mi NNW 11.5 mph - N/A   Clear
9:53 AM 21.0 °F 7.6 °F 12.9 °F 71% 30.27 in 10.0 mi NNW 15.0 mph - N/A   Clear
10:53 AM 24.1 °F 10.6 °F 12.9 °F 62% 30.27 in 10.0 mi NNW 17.3 mph - N/A   Clear
11:53 AM 25.0 °F 12.6 °F 14.0 °F 63% 30.27 in 10.0 mi NNW 15.0 mph - N/A   Clear
12:53 PM 27.0 °F 15.6 °F 18.0 °F 69% 30.26 in 10.0 mi NW 13.8 mph - N/A   Clear
1:53 PM 28.9 °F 17.7 °F 19.0 °F 67% 30.25 in 10.0 mi NNW 15.0 mph 19.6 mph N/A   Clear
2:53 PM 30.0 °F 18.7 °F 19.9 °F 66% 30.23 in 10.0 mi NW 16.1 mph - N/A   Partly Cloudy
3:53 PM 30.9 °F 20.7 °F 21.0 °F 67% 30.21 in 10.0 mi WNW 13.8 mph 24.2 mph N/A   Partly Cloudy
4:53 PM 33.1 °F 22.6 °F 21.0 °F 61% 30.20 in 10.0 mi WNW 16.1 mph 24.2 mph N/A   Clear
5:53 PM 33.1 °F 22.6 °F 19.9 °F 59% 30.20 in 10.0 mi NW 16.1 mph 23.0 mph N/A   Clear
6:53 PM 32.0 °F 22.5 °F 19.9 °F 61% 30.21 in 10.0 mi WNW 12.7 mph - N/A   Clear
7:53 PM 30.0 °F 20.0 °F 19.9 °F 66% 30.23 in 10.0 mi WNW 12.7 mph - N/A   Clear
8:53 PM 28.0 °F 18.1 °F 19.9 °F 72% 30.24 in 10.0 mi WNW 11.5 mph - N/A   Clear
9:53 PM 26.1 °F 15.0 °F 21.0 °F 81% 30.26 in 10.0 mi WNW 12.7 mph - N/A   Clear
10:53 PM 25.0 °F 14.8 °F 19.0 °F 78% 30.28 in 10.0 mi NNW 10.4 mph - N/A   Scattered Clouds
11:53 PM 23.0 °F 13.1 °F 14.0 °F 68% 30.31 in 10.0 mi NNW 9.2 mph - N/A   Clear